EW8474 Weather Reports


Display with metric or nautical units.
time (UTC)temp
F
wind
direction
speed
MPH
gust
MPH
rain 1hr
in
rain 24hr
in
rain mn
in
humidity
%
barometer
mb
20260507184614 56 238 0.0 0.0 0.00 0.05 0.05 78 1018.9
20260507183018 56 293 0.0 3.0 0.00 0.05 0.05 78 1019.0
20260507181511 55 188 0.0 3.0 0.00 0.05 0.05 79 1019.0
20260507180009 55 329 0.0 1.0 0.00 0.05 0.05 80 1019.0
20260507174509 55 311 0.0 2.0 0.00 0.05 0.05 81 1019.1
20260507173015 54 13 0.0 2.0 0.00 0.05 0.05 83 1019.1
20260507171506 53 293 0.0 3.0 0.00 0.05 0.05 84 1019.1
20260507170006 53 305 0.0 3.0 0.00 0.05 0.05 85 1019.1
20260507164505 53 295 0.0 3.0 0.00 0.05 0.05 85 1019.1
20260507163004 52 309 0.0 4.0 0.00 0.05 0.05 86 1019.0
20260507161504 52 293 1.0 5.0 0.00 0.05 0.05 86 1019.0
20260507160003 52 355 1.0 5.0 0.00 0.05 0.05 87 1019.1
20260507154503 52 309 0.0 6.0 0.00 0.05 0.05 88 1019.2
20260507153007 51 348 0.0 4.0 0.00 0.05 0.05 89 1019.2
20260507151502 51 300 0.0 2.0 0.00 0.05 0.05 89 1019.1
20260507150101 51 1 0.0 3.0 0.00 0.05 0.05 89 1019.2
20260507144606 51 330 0.0 1.0 0.00 0.05 0.05 90 1019.2
20260507143110 50 7 0.0 1.0 0.00 0.05 0.05 90 1019.1
20260507141620 50 281 0.0 1.0 0.00 0.05 0.05 91 1019.0
20260507140110 50 291 0.0 2.0 0.00 0.05 0.05 91 1019.0
20260507134608 50 296 1.0 3.0 0.01 0.05 0.05 91 1019.1
20260507133056 50 349 1.0 4.0 0.02 0.05 0.05 91 1019.0
20260507131557 50 298 1.0 4.0 0.03 0.05 0.05 91 1018.9
20260507130055 50 300 0.0 5.0 0.05 0.05 0.05 91 1019.0
20260507124553 51 306 1.0 4.0 0.04 0.04 0.04 91 1018.9
20260507123052 51 302 0.0 1.0 0.03 0.03 0.03 91 1018.9
20260507121550 51 231 0.0 1.0 0.02 0.02 0.02 91 1019.0
20260507120049 51 293 0.0 1.0 0.00 0.00 0.00 91 1019.1
20260507114553 51 316 0.0 2.0 0.00 0.00 0.00 91 1019.1
20260507113047 52 338 0.0 1.0 0.00 0.00 0.00 91 1019.2
20260507111555 52 18 0.0 3.0 0.00 0.00 0.00 91 1019.3
20260507110043 52 37 0.0 2.0 0.00 0.00 0.00 91 1019.3
20260507104541 53 345 0.0 2.0 0.00 0.00 0.00 91 1019.3
20260507103039 53 9 0.0 1.0 0.00 0.00 0.00 90 1019.3
20260507101543 53 25 0.0 0.0 0.00 0.00 0.00 90 1019.2
20260507100040 53 35 1.0 2.0 0.00 0.00 0.00 90 1019.3
20260507094541 53 45 1.0 3.0 0.00 0.00 0.00 90 1019.4
20260507093043 53 39 0.0 2.0 0.00 0.00 0.00 89 1019.4
20260507091538 53 306 0.0 1.0 0.00 0.00 0.00 89 1019.3
20260507090033 53 2 0.0 2.0 0.00 0.00 0.00 89 1019.3
20260507084533 53 344 0.0 1.0 0.00 0.00 0.00 88 1019.3
20260507083033 54 54 0.0 4.0 0.00 0.00 0.00 88 1019.3
20260507081536 54 2 3.0 6.0 0.00 0.00 0.00 87 1019.3
20260507080029 54 37 2.0 5.0 0.00 0.00 0.00 86 1019.2
20260507074526 55 332 0.0 5.0 0.00 0.00 0.00 85 1019.2
20260507073025 55 30 0.0 0.0 0.00 0.00 0.00 84 1019.2
20260507071527 55 38 1.0 3.0 0.00 0.00 0.00 84 1019.1
20260507070022 55 18 0.0 1.0 0.00 0.00 0.00 84 1019.0
20260507064520 55 319 0.0 0.0 0.00 0.00 0.00 83 1018.9
20260507063019 55 319 0.0 0.0 0.00 0.00 0.00 83 1018.9
20260507061520 55 319 0.0 0.0 0.00 0.00 0.00 83 1018.9
20260507060024 55 349 0.0 1.0 0.00 0.00 0.00 83 1019.0
20260507054518 55 346 0.0 2.0 0.00 0.00 0.00 83 1019.0
20260507053020 55 346 1.0 3.0 0.00 0.00 0.00 84 1019.1
20260507051517 55 307 0.0 2.0 0.00 0.00 0.00 85 1019.2
20260507050016 55 285 0.0 0.0 0.00 0.00 0.00 86 1019.2
20260507044516 55 295 0.0 0.0 0.00 0.00 0.00 86 1019.2
20260507043015 55 295 0.0 2.0 0.00 0.00 0.00 86 1019.2
20260507041531 55 335 0.0 1.0 0.00 0.00 0.00 85 1019.1
20260507040013 55 306 0.0 2.0 0.00 0.00 0.00 85 1019.1
20260507034514 55 274 0.0 3.0 0.00 0.00 0.00 85 1018.9
20260507033013 56 254 0.0 1.0 0.00 0.00 0.00 84 1018.8
20260507031513 56 263 0.0 3.0 0.00 0.00 0.00 83 1018.7
20260507030010 56 282 0.0 4.0 0.00 0.00 0.00 83 1018.7
20260507024509 56 306 0.0 3.0 0.00 0.00 0.00 83 1018.7
20260507023009 56 266 0.0 4.0 0.00 0.00 0.00 83 1018.7
20260507021508 56 255 0.0 4.0 0.00 0.00 0.00 83 1018.6
20260507020008 56 300 0.0 4.0 0.00 0.00 0.00 82 1018.7
20260507014516 56 299 0.0 6.0 0.00 0.00 0.00 82 1018.5
20260507013022 56 272 2.0 6.0 0.00 0.00 0.00 81 1018.5
20260507011505 57 234 1.0 6.0 0.00 0.00 0.00 81 1018.5
20260507010005 57 238 2.0 8.0 0.00 0.00 0.00 80 1018.6
20260507004504 57 304 0.0 5.0 0.00 0.00 0.00 80 1018.6
20260507003003 56 222 1.0 7.0 0.00 0.00 0.00 80 1018.7
20260507001504 56 227 2.0 8.0 0.00 0.00 0.00 80 1018.6
20260507000007 57 245 1.0 6.0 0.00 0.00 0.00 78 1018.6
20260506234502 57 254 0.0 8.0 0.00 0.00 0.00 78 1018.6
20260506233001 57 262 4.0 7.0 0.00 0.00 0.00 77 1018.6
20260506231600 58 231 0.0 5.0 0.00 0.00 0.00 76 1018.7
20260506224601 57 245 1.0 6.0 0.00 0.00 0.00 75 1018.7
20260506223125 57 261 1.0 4.0 0.00 0.00 0.00 76 1018.7
20260506221603 57 240 0.0 3.0 0.00 0.00 0.00 76 1018.8
20260506220057 58 223 1.0 3.0 0.00 0.00 0.00 76 1018.9
20260506214608 58 217 2.0 8.0 0.00 0.00 0.00 74 1018.9
20260506213055 58 152 2.0 6.0 0.00 0.00 0.00 76 1018.9
20260506211556 58 191 1.0 8.0 0.00 0.00 0.00 76 1018.9
20260506210053 59 222 4.0 10.0 0.00 0.00 0.00 74 1019.0
20260506204551 60 172 6.0 11.0 0.00 0.00 0.00 72 1018.8
20260506203049 59 175 2.0 8.0 0.00 0.00 0.00 73 1018.8
20260506201546 59 205 2.0 10.0 0.00 0.00 0.00 75 1018.7
20260506200117 59 229 3.0 8.0 0.00 0.00 0.00 78 1018.8
20260506194541 58 259 0.0 10.0 0.00 0.00 0.00 80 1018.7
20260506193042 58 158 3.0 9.0 0.00 0.00 0.00 80 1018.6
20260506191538 58 200 2.0 8.0 0.00 0.00 0.00 80 1018.6
20260506190038 57 234 2.0 6.0 0.00 0.00 0.00 81 1018.6